AVA1612 SKBO-SKRG

Flight info

Callsign AVA1612
Flight time 0h 28m
Altitude 24000
Route TOBKI1S VASIL W36 NIRSO NIRSO3C
Aircraft A320/M-SDE3FGHIRWY/LB1

Departure

Time 2026-04-25 02:10
Airport El Dorado International Airport (SKBO)

Arrival

Time 2026-04-25 02:39
Airport Jose Maria Córdova International Airport (SKRG)
Time Latitude Longitude Altitude Speed Heading
2026-04-25 00:27 4.69777 -74.14525 8366 ft 0 kts 38°
2026-04-25 01:10 4.69764 -74.14534 8366 ft 4 kts 37°
2026-04-25 01:10 4.69743 -74.14547 8366 ft 4 kts
2026-04-25 01:10 4.69720 -74.14541 8366 ft 3 kts 311°
2026-04-25 01:10 4.69717 -74.14537 8366 ft 0 kts 308°
2026-04-25 01:15 4.69721 -74.14542 8366 ft 3 kts 308°
2026-04-25 01:15 4.69728 -74.14551 8366 ft 1 kts 308°
2026-04-25 01:15 4.69741 -74.14567 8366 ft 3 kts 308°
2026-04-25 01:16 4.69750 -74.14579 8366 ft 4 kts 308°
2026-04-25 01:16 4.69783 -74.14622 8366 ft 12 kts 308°
2026-04-25 01:16 4.69826 -74.14677 8366 ft 8 kts 307°
2026-04-25 01:16 4.69862 -74.14727 8366 ft 9 kts 304°
2026-04-25 01:17 4.69903 -74.14782 8366 ft 10 kts 307°
2026-04-25 01:17 4.69941 -74.14844 8366 ft 11 kts 278°
2026-04-25 01:17 4.69895 -74.14904 8366 ft 12 kts 217°
2026-04-25 01:17 4.69851 -74.14967 8366 ft 12 kts 280°
2026-04-25 01:18 4.69900 -74.15035 8366 ft 13 kts 305°
2026-04-25 01:18 4.69953 -74.15110 8366 ft 14 kts 311°
2026-04-25 01:18 4.70017 -74.15186 8366 ft 15 kts 310°
2026-04-25 01:18 4.70078 -74.15270 8366 ft 16 kts 306°
2026-04-25 01:19 4.70146 -74.15359 8366 ft 17 kts 308°
2026-04-25 01:19 4.70219 -74.15455 8365 ft 18 kts 307°
2026-04-25 01:19 4.70295 -74.15556 8366 ft 19 kts 307°
2026-04-25 01:19 4.70376 -74.15662 8365 ft 20 kts 307°
2026-04-25 01:20 4.70460 -74.15773 8366 ft 20 kts 307°
2026-04-25 01:20 4.70546 -74.15888 8366 ft 21 kts 307°
2026-04-25 01:20 4.70636 -74.16006 8366 ft 22 kts 307°
2026-04-25 01:20 4.70727 -74.16127 8366 ft 22 kts 307°
2026-04-25 01:21 4.70821 -74.16251 8366 ft 21 kts 307°
2026-04-25 01:21 4.70851 -74.16291 8366 ft 6 kts 307°
2026-04-25 01:21 4.70853 -74.16293 8366 ft 0 kts 307°
2026-04-25 01:25 4.70853 -74.16294 8366 ft 1 kts 307°
2026-04-25 01:25 4.70890 -74.16342 8367 ft 17 kts 307°
2026-04-25 01:25 4.70931 -74.16397 8366 ft 0 kts 307°
2026-04-25 01:28 4.70932 -74.16399 8366 ft 2 kts 307°
2026-04-25 01:29 4.70967 -74.16444 8366 ft 10 kts 307°
2026-04-25 01:29 4.70983 -74.16465 8366 ft 0 kts 307°
2026-04-25 01:36 4.70996 -74.16482 8366 ft 7 kts 307°
2026-04-25 01:36 4.71009 -74.16500 8366 ft 0 kts 307°
2026-04-25 01:40 4.71031 -74.16527 8366 ft 12 kts 307°
2026-04-25 01:40 4.71066 -74.16574 8366 ft 7 kts 307°
2026-04-25 01:41 4.71066 -74.16575 8366 ft 0 kts 307°
2026-04-25 01:41 4.71068 -74.16577 8366 ft 3 kts 307°
2026-04-25 01:41 4.71094 -74.16612 8366 ft 0 kts 307°
2026-04-25 01:44 4.71096 -74.16615 8366 ft 4 kts 307°
2026-04-25 01:45 4.71134 -74.16666 8366 ft 8 kts 307°
2026-04-25 01:45 4.71135 -74.16667 8366 ft 0 kts 307°
2026-04-25 01:48 4.71136 -74.16669 8366 ft 2 kts 307°
2026-04-25 01:49 4.71152 -74.16689 8366 ft 2 kts 307°
2026-04-25 01:49 4.71153 -74.16691 8366 ft 0 kts 307°
2026-04-25 01:52 4.71172 -74.16716 8366 ft 11 kts 307°
2026-04-25 01:52 4.71184 -74.16732 8366 ft 5 kts 307°
2026-04-25 01:52 4.71190 -74.16741 8366 ft 0 kts 307°
2026-04-25 01:57 4.71236 -74.16802 8366 ft 16 kts 307°
2026-04-25 01:57 4.71221 -74.16876 8365 ft 0 kts 218°
2026-04-25 02:07 4.71216 -74.16880 8366 ft 5 kts 218°
2026-04-25 02:07 4.71139 -74.16891 8364 ft 16 kts 168°
2026-04-25 02:08 4.71021 -74.16870 8363 ft 17 kts 152°
2026-04-25 02:08 4.70992 -74.16839 8363 ft 0 kts 128°
2026-04-25 02:09 4.70991 -74.16837 8364 ft 2 kts 128°
2026-04-25 02:09 4.70896 -74.16712 8363 ft 58 kts 127°
2026-04-25 02:10 4.70511 -74.16202 8366 ft 123 kts 127°
2026-04-25 02:10 4.69879 -74.15368 8369 ft 175 kts 127°
2026-04-25 02:10 4.69109 -74.14348 8862 ft 185 kts 127°
2026-04-25 02:10 4.68238 -74.13414 9612 ft 186 kts 153°
2026-04-25 02:11 4.66989 -74.13233 10228 ft 187 kts 193°
2026-04-25 02:11 4.65858 -74.13928 10373 ft 205 kts 238°
2026-04-25 02:11 4.65108 -74.15212 10617 ft 222 kts 240°
2026-04-25 02:11 4.64266 -74.16585 10854 ft 243 kts 238°
2026-04-25 02:12 4.63334 -74.18039 11441 ft 249 kts 238°
2026-04-25 02:12 4.62390 -74.19501 12232 ft 250 kts 237°
2026-04-25 02:12 4.61558 -74.21037 12964 ft 252 kts 252°
2026-04-25 02:12 4.61130 -74.22816 13246 ft 273 kts 258°
2026-04-25 02:13 4.60746 -74.24763 13493 ft 297 kts 259°
2026-04-25 02:13 4.60354 -74.26883 13709 ft 321 kts 262°
2026-04-25 02:13 4.60086 -74.29182 13916 ft 343 kts 265°
2026-04-25 02:13 4.59932 -74.31605 14433 ft 352 kts 268°
2026-04-25 02:14 4.59829 -74.34076 15093 ft 357 kts 268°
2026-04-25 02:14 4.59740 -74.36573 15761 ft 360 kts 268°
2026-04-25 02:14 4.59668 -74.39096 16415 ft 364 kts 272°
2026-04-25 02:14 4.60209 -74.41536 17004 ft 368 kts 294°
2026-04-25 02:15 4.61457 -74.43794 17652 ft 372 kts 304°
2026-04-25 02:15 4.63022 -74.45858 18305 ft 372 kts 310°
2026-04-25 02:15 4.64737 -74.47824 18884 ft 377 kts 311°
2026-04-25 02:15 4.66507 -74.49787 19445 ft 382 kts 312°
2026-04-25 02:16 4.68275 -74.51792 19980 ft 386 kts 310°
2026-04-25 02:16 4.70007 -74.53863 20159 ft 389 kts 309°
2026-04-25 02:16 4.71646 -74.56015 20184 ft 388 kts 306°
2026-04-25 02:16 4.73203 -74.58217 20211 ft 387 kts 304°
2026-04-25 02:17 4.74719 -74.60448 20229 ft 387 kts 304°
2026-04-25 02:17 4.76224 -74.62680 20214 ft 387 kts 304°
2026-04-25 02:17 4.77738 -74.64905 20203 ft 387 kts 304°
2026-04-25 02:17 4.79272 -74.67125 20183 ft 387 kts 305°
2026-04-25 02:18 4.80820 -74.69336 20167 ft 387 kts 305°
2026-04-25 02:18 4.82373 -74.71540 20151 ft 387 kts 305°
2026-04-25 02:18 4.83931 -74.73743 20113 ft 387 kts 305°
2026-04-25 02:18 4.85473 -74.75924 20085 ft 387 kts 305°
2026-04-25 02:19 4.87029 -74.78127 20056 ft 387 kts 305°
2026-04-25 02:19 4.88584 -74.80333 20041 ft 387 kts 305°
2026-04-25 02:19 4.90134 -74.82537 20033 ft 387 kts 305°
2026-04-25 02:19 4.91684 -74.84744 20019 ft 387 kts 305°
2026-04-25 02:20 4.93232 -74.86947 20015 ft 387 kts 305°
2026-04-25 02:20 4.94781 -74.89154 20010 ft 387 kts 305°
2026-04-25 02:20 4.96326 -74.91360 20049 ft 387 kts 305°
2026-04-25 02:20 4.97351 -74.92821 20053 ft 387 kts 305°
2026-04-25 02:21 4.98900 -74.95027 20051 ft 387 kts 305°
2026-04-25 02:21 5.00454 -74.97236 20044 ft 387 kts 305°
2026-04-25 02:21 5.02005 -74.99441 20049 ft 387 kts 305°
2026-04-25 02:21 5.03556 -75.01648 20054 ft 387 kts 305°
2026-04-25 02:22 5.05108 -75.03856 20039 ft 384 kts 305°
2026-04-25 02:22 5.06628 -75.06014 19786 ft 374 kts 305°
2026-04-25 02:22 5.08110 -75.08122 19543 ft 365 kts 305°
2026-04-25 02:22 5.09550 -75.10178 19285 ft 356 kts 305°
2026-04-25 02:23 5.10959 -75.12190 19034 ft 349 kts 305°
2026-04-25 02:23 5.12348 -75.14172 18966 ft 344 kts 305°
2026-04-25 02:23 5.13730 -75.16142 19124 ft 347 kts 305°
2026-04-25 02:23 5.15120 -75.18121 19152 ft 347 kts 306°
2026-04-25 02:24 5.16649 -75.19993 19046 ft 348 kts 311°
2026-04-25 02:24 5.18248 -75.21801 18790 ft 345 kts 311°
2026-04-25 02:24 5.19844 -75.23597 18534 ft 344 kts 311°
2026-04-25 02:24 5.21428 -75.25382 18292 ft 342 kts 311°
2026-04-25 02:25 5.23004 -75.27158 18045 ft 340 kts 311°
2026-04-25 02:25 5.24569 -75.28927 17791 ft 338 kts 311°
2026-04-25 02:25 5.26128 -75.30689 17534 ft 337 kts 311°
2026-04-25 02:25 5.27684 -75.32450 17277 ft 337 kts 311°
2026-04-25 02:26 5.29231 -75.34206 17028 ft 335 kts 311°
2026-04-25 02:26 5.30773 -75.35955 16774 ft 334 kts 311°
2026-04-25 02:26 5.32399 -75.37609 16523 ft 332 kts 320°
2026-04-25 02:26 5.34319 -75.38889 16269 ft 332 kts 333°
2026-04-25 02:27 5.36468 -75.39716 16018 ft 332 kts 345°
2026-04-25 02:27 5.38714 -75.40056 15776 ft 331 kts 356°
2026-04-25 02:27 5.41041 -75.40176 15526 ft 330 kts 356°
2026-04-25 02:27 5.43298 -75.40299 15275 ft 328 kts 356°
2026-04-25 02:28 5.45638 -75.40432 14510 ft 339 kts 356°
2026-04-25 02:28 5.47978 -75.40566 14033 ft 339 kts 356°
2026-04-25 02:28 5.50311 -75.40698 13778 ft 332 kts 356°
2026-04-25 02:28 5.52593 -75.40826 13525 ft 325 kts 356°
2026-04-25 02:29 5.54859 -75.40952 13274 ft 320 kts 356°
2026-04-25 02:29 5.57047 -75.41072 13027 ft 318 kts 356°
2026-04-25 02:29 5.59249 -75.41192 12895 ft 317 kts 356°
2026-04-25 02:29 5.61456 -75.41316 12897 ft 317 kts 356°
2026-04-25 02:30 5.63660 -75.41441 12902 ft 317 kts 356°
2026-04-25 02:30 5.65867 -75.41565 12909 ft 317 kts 356°
2026-04-25 02:30 5.68068 -75.41689 12910 ft 317 kts 356°
2026-04-25 02:30 5.70266 -75.41810 12908 ft 311 kts 356°
2026-04-25 02:31 5.72339 -75.41922 12906 ft 286 kts 356°
2026-04-25 02:31 5.74261 -75.42026 12916 ft 270 kts 356°
2026-04-25 02:31 5.76125 -75.42128 12927 ft 267 kts 356°
2026-04-25 02:31 5.77999 -75.42176 12900 ft 277 kts
2026-04-25 02:32 5.79947 -75.42093 12657 ft 282 kts
2026-04-25 02:32 5.81909 -75.42077 12406 ft 281 kts 359°
2026-04-25 02:32 5.83850 -75.42096 12240 ft 274 kts 359°
2026-04-25 02:32 5.85715 -75.42112 12173 ft 262 kts 359°
2026-04-25 02:33 5.87501 -75.42124 12096 ft 252 kts 359°
2026-04-25 02:33 5.89228 -75.42135 11915 ft 247 kts 359°
2026-04-25 02:33 5.90941 -75.42146 11606 ft 247 kts 359°
2026-04-25 02:33 5.92643 -75.42156 11282 ft 248 kts 359°
2026-04-25 02:34 5.94333 -75.42168 10953 ft 236 kts 359°
2026-04-25 02:34 5.95941 -75.42177 10652 ft 225 kts 360°
2026-04-25 02:34 5.97455 -75.42185 10382 ft 210 kts 360°
2026-04-25 02:34 5.98845 -75.42197 10117 ft 189 kts 359°
2026-04-25 02:35 6.00110 -75.42205 9854 ft 173 kts 358°
2026-04-25 02:35 6.01281 -75.42213 9619 ft 164 kts 359°
2026-04-25 02:35 6.02399 -75.42220 9415 ft 160 kts 360°
2026-04-25 02:35 6.03503 -75.42229 9204 ft 156 kts 358°
2026-04-25 02:36 6.04583 -75.42238 9001 ft 155 kts
2026-04-25 02:36 6.05650 -75.42241 8801 ft 154 kts
2026-04-25 02:36 6.06726 -75.42249 8594 ft 155 kts
2026-04-25 02:36 6.07823 -75.42255 8381 ft 159 kts 360°
2026-04-25 02:37 6.08936 -75.42263 8172 ft 160 kts 359°
2026-04-25 02:37 6.10053 -75.42270 7958 ft 160 kts 359°
2026-04-25 02:37 6.11164 -75.42273 7736 ft 159 kts 360°
2026-04-25 02:37 6.12269 -75.42274 7522 ft 159 kts 359°
2026-04-25 02:38 6.13372 -75.42289 7324 ft 158 kts 359°
2026-04-25 02:38 6.14462 -75.42294 7099 ft 155 kts 359°
2026-04-25 02:38 6.15537 -75.42303 6983 ft 147 kts 359°
2026-04-25 02:38 6.16394 -75.42309 6984 ft 99 kts 359°
2026-04-25 02:39 6.16888 -75.42315 7004 ft 31 kts 355°
2026-04-25 02:39 6.17008 -75.42357 7011 ft 9 kts 340°
2026-04-25 02:39 6.17052 -75.42379 7011 ft 5 kts 330°
2026-04-25 02:39 6.17083 -75.42397 7016 ft 10 kts 329°
2026-04-25 02:40 6.17150 -75.42437 7014 ft 10 kts 328°
2026-04-25 02:40 6.17170 -75.42452 7013 ft 0 kts 320°
2026-04-25 02:40 6.17177 -75.42464 7014 ft 7 kts 298°
2026-04-25 02:41 6.17184 -75.42542 7013 ft 12 kts 270°
2026-04-25 02:41 6.17177 -75.42606 7017 ft 5 kts 244°
2026-04-25 02:41 6.17132 -75.42620 7017 ft 11 kts 179°
2026-04-25 02:41 6.17052 -75.42637 7017 ft 12 kts 214°
2026-04-25 02:42 6.16988 -75.42688 7018 ft 12 kts 216°
2026-04-25 02:42 6.16990 -75.42729 7019 ft 2 kts 324°
2026-04-25 02:42 6.16999 -75.42736 7020 ft 0 kts 320°